Regional Weather Roundup
Issued by NWS

Home | Current Version | Previous Version | Graphics & Text | Print | Product List | Glossary On
Versions: 1 2 3 4 5 6 7 8 9 10 11 12 13 14 15 16 17 18 19 20 21 22 23 24 25 26 27 28 29 30 31 32 33 34 35 36 37 38 39 40 41 42 43 44 45 46 47 48 49 50
000
ASUS45 KSLC 272210
RWRUT

UTAH REGIONAL WEATHER ROUNDUP
NATIONAL WEATHER SERVICE SALT LAKE CITY UT
400 PM MDT FRI MAR 27 2015

UTZ001>011-023>025-272300-

NORTHERN UTAH

CITY           SKY/WX    TMP DP  RH WIND       PRES   REMARKS
BRIGHAM CITY   SUNNY     67  30  25 SE5       30.22F
HILL AFB       SUNNY     66  30  26 VRB2      30.22F
LOGAN          SUNNY     68  34  28 CALM      30.20F
OGDEN          SUNNY     67  31  26 W6        30.21F
PROVO AIRPORT  SUNNY     66  34  30 VRB6      30.22F
SALT LAKE CITY MOSUNNY   70  31  23 W3        30.20F
VERNAL         MOSUNNY   67  26  21 CALM      30.18F
WENDOVER       SUNNY     64  27  24 E5        30.21F
HEBER CITY     SUNNY     70  30  23 W6        30.22F
WEST JORDAN    SUNNY     70  36  28 CALM      30.22F

$$

UTZ012>022-026-027-272300-

SOUTHERN/CENTRAL UTAH

CITY           SKY/WX    TMP DP  RH WIND       PRES   REMARKS
BLANDING       SUNNY     69  24  18 SW9       30.28F
BRYCE CANYON   SUNNY     66  24  20 VRB5      30.31F
CEDAR CITY     SUNNY     73  16  11 CALM      30.22F
DELTA          SUNNY     70  26  19 W5        30.21F
HANKSVILLE     SUNNY     75  21  13 E3        30.17F
MILFORD        SUNNY     73  25  16 VRB3      30.20F
MOAB/CYNLANDS  SUNNY     72  22  15 W7        30.16F
PRICE          SUNNY     71  25  17 S9        30.20F
ST GEORGE      CLEAR     79  28  15 W6        30.12F
KANAB          SUNNY     75  18  11 S12       30.22F

$$

REGIONAL REPORTS     COLORADO/ARIZONA

CITY           SKY/WX    TMP DP  RH WIND       PRES   REMARKS
CRAIG, CO      SUNNY     64  29  26 NW12      30.20F
GRAND JUNCTION SUNNY     70  25  18 NW9       30.16F
RIFLE          SUNNY     69  24  18 CALM      30.17F
MONTROSE       SUNNY     69  22  16 VRB6      30.22F
CORTEZ         SUNNY     70  22  16 W14G21    30.21F
PAGE, AZ       SUNNY     75  23  14 NE6       30.16F
GRAND CANYON   SUNNY     71   7   8 VRB7      30.29F
KINGMAN        SUNNY     82  20  10 SW12      30.15F
FLAGSTAFF      SUNNY     70   7   8 SW15G23   30.30F

$$

REGIONAL REPORTS    NEVADA/IDAHO/WYOMING

CITY           SKY/WX    TMP DP  RH WIND       PRES   REMARKS
LAS VEGAS, NV  SUNNY     85  23  10 VRB7      30.04F
ELY            SUNNY     73  20  13 W12       30.23F
ELKO           SUNNY     74  28  18 W15       30.18F
POCATELLO, ID  MOSUNNY   72  34  24 W9        30.16F
BURLEY         SUNNY     73  34  23 CALM      30.12F
EVANSTON, WY   MOSUNNY   64  28  25 W12       30.27F
ROCK SPRINGS   SUNNY     66  27  23 W24G33    30.21F
KEMMERER       SUNNY     61  30  31 NW13      30.28F

$$


USA.gov is the U.S. government's official web portal to all federal, state and local government web resources and services.